Time,TemperatureF,DewpointF,PressureIn,WindDirection,WindDirectionDegrees,WindSpeedMPH,WindSpeedGustMPH,Humidity,HourlyPrecipIn,Conditions,Clouds,dailyrainin,SoftwareType,DateUTC
2013-09-24 00:21:00,76.0,43.0,29.77,SSW,204,0.0,1.0,31,0.00,,,0.00,,2013-09-24 07:21:00,
2013-09-24 00:52:00,76.0,44.0,29.77,SSW,203,0.0,0.0,32,0.00,,,0.00,,2013-09-24 07:52:00,
2013-09-24 01:22:00,75.0,43.0,29.77,SSW,204,0.0,0.0,32,0.00,,,0.00,,2013-09-24 08:22:00,
2013-09-24 01:52:00,75.0,43.0,29.77,SSW,204,0.0,0.0,32,0.00,,,0.00,,2013-09-24 08:52:00,
2013-09-24 02:21:00,75.0,43.0,29.78,SSW,203,0.0,0.0,32,0.00,,,0.00,,2013-09-24 09:21:00,
2013-09-24 02:53:00,75.0,42.0,29.77,SSW,204,0.0,0.0,31,0.00,,,0.00,,2013-09-24 09:53:00,
2013-09-24 03:23:00,74.0,42.0,29.77,SSW,204,0.0,0.0,32,0.00,,,0.00,,2013-09-24 10:23:00,
2013-09-24 03:53:00,74.0,45.0,29.76,SSW,203,0.0,0.0,35,0.00,,,0.00,,2013-09-24 10:53:00,
2013-09-24 04:22:00,72.0,44.0,29.77,SSW,204,0.0,0.0,37,0.00,,,0.00,,2013-09-24 11:22:00,
2013-09-24 04:52:00,70.0,43.0,29.77,SSW,203,0.0,0.0,38,0.00,,,0.00,,2013-09-24 11:52:00,
2013-09-24 05:21:00,70.0,43.0,29.78,SSW,204,0.0,0.0,38,0.00,,,0.00,,2013-09-24 12:21:00,
2013-09-24 05:52:00,69.0,44.0,29.79,SSW,204,0.0,0.0,40,0.00,,,0.00,,2013-09-24 12:52:00,
2013-09-24 06:21:00,69.0,44.0,29.79,SSW,204,0.0,0.0,41,0.00,,,0.00,,2013-09-24 13:21:00,
2013-09-24 06:52:00,69.0,44.0,29.80,SSW,204,0.0,0.0,40,0.00,,,0.00,,2013-09-24 13:52:00,
2013-09-24 07:21:00,69.0,46.0,29.81,SSW,203,0.0,0.0,43,0.00,,,0.00,,2013-09-24 14:21:00,
2013-09-24 07:52:00,70.0,47.0,29.82,SSW,204,0.0,0.0,44,0.00,,,0.00,,2013-09-24 14:52:00,
2013-09-24 08:22:00,72.0,45.0,29.82,ENE,69,0.0,1.0,38,0.00,,,0.00,,2013-09-24 15:22:00,
2013-09-24 08:53:00,75.0,47.0,29.83,North,10,0.0,0.0,37,0.00,,,0.00,,2013-09-24 15:53:00,
2013-09-24 09:22:00,79.0,47.0,29.83,North,11,0.0,0.0,33,0.00,,,0.00,,2013-09-24 16:22:00,
2013-09-24 09:53:00,82.0,48.0,29.84,North,10,0.0,1.0,31,0.00,,,0.00,,2013-09-24 16:53:00,
2013-09-24 10:23:00,85.0,45.0,29.84,NNW,327,0.0,0.0,25,0.00,,,0.00,,2013-09-24 17:23:00,
2013-09-24 10:54:00,87.0,47.0,29.84,NW,306,0.0,0.0,25,0.00,,,0.00,,2013-09-24 17:54:00,
2013-09-24 11:22:00,90.0,51.0,29.83,South,185,0.0,2.0,27,0.00,,,0.00,,2013-09-24 18:22:00,
2013-09-24 11:52:00,93.0,53.0,29.82,ESE,114,0.0,1.0,26,0.00,,,0.00,,2013-09-24 18:52:00,
2013-09-24 12:22:00,95.0,55.0,29.81,SW,225,0.0,2.0,26,0.00,,,0.00,,2013-09-24 19:22:00,
2013-09-24 13:22:00,97.0,49.0,29.78,SSE,151,1.0,6.0,20,0.00,,,0.00,,2013-09-24 20:22:00,
2013-09-24 14:54:00,98.0,50.0,29.74,SE,134,1.0,7.0,20,0.00,,,0.00,,2013-09-24 21:54:00,
2013-09-24 15:53:00,99.0,49.0,29.72,SSW,207,2.0,7.0,19,0.00,,,0.00,,2013-09-24 22:53:00,
2013-09-24 16:22:00,98.0,50.0,29.71,South,186,2.0,8.0,20,0.00,,,0.00,,2013-09-24 23:22:00,
2013-09-24 16:30:00,98.0,51.0,29.69,SSW,209,3.0,9.0,21,0.00,,,0.00,,2013-09-24 23:30:00,
2013-09-24 17:22:00,98.0,51.0,29.69,SSW,209,3.0,9.0,21,0.00,,,0.00,,2013-09-25 00:22:00,
2013-09-24 18:21:00,96.0,50.0,29.68,WSW,250,2.0,5.0,21,0.00,,,0.00,,2013-09-25 01:21:00,
2013-09-24 18:52:00,95.0,50.0,29.68,SW,227,0.0,2.0,22,0.00,,,0.00,,2013-09-25 01:52:00,
2013-09-24 19:21:00,93.0,51.0,29.67,SW,227,0.0,0.0,24,0.00,,,0.00,,2013-09-25 02:21:00,
2013-09-24 19:52:00,91.0,53.0,29.68,SW,227,0.0,1.0,28,0.00,,,0.00,,2013-09-25 02:52:00,
2013-09-24 20:23:00,88.0,53.0,29.69,South,172,1.0,5.0,30,0.00,,,0.00,,2013-09-25 03:23:00,
2013-09-24 20:54:00,87.0,53.0,29.70,SE,145,1.0,3.0,31,0.00,,,0.00,,2013-09-25 03:54:00,
2013-09-24 21:14:00,86.0,53.0,29.70,SSE,152,1.0,5.0,32,0.00,,,0.00,,2013-09-25 04:14:00,
2013-09-24 21:24:00,85.0,53.0,29.71,SSE,147,0.0,5.0,33,0.00,,,0.00,,2013-09-25 04:24:00,
2013-09-24 21:53:00,84.0,53.0,29.70,SE,142,1.0,7.0,35,0.00,,,0.00,,2013-09-25 04:53:00,
2013-09-24 22:23:00,83.0,53.0,29.70,South,173,2.0,7.0,36,0.00,,,0.00,,2013-09-25 05:23:00,
2013-09-24 22:53:00,82.0,52.0,29.70,South,175,1.0,3.0,36,0.00,,,0.00,,2013-09-25 05:53:00,
2013-09-24 23:23:00,81.0,53.0,29.70,SSE,158,0.0,3.0,38,0.00,,,0.00,,2013-09-25 06:23:00,
2013-09-24 23:52:00,80.0,55.0,29.69,SSE,152,1.0,3.0,42,0.00,,,0.00,,2013-09-25 06:52:00,